This is the latest recevied weather packets stored in our database for station/object WBGG. If no packets are shown the sender has not sent any weather packets the latest 10 day(s).
| Time | Temp. | Humidity | Pressure | Rain* | Wind** | Luminosity | Snow |
|---|---|---|---|---|---|---|---|
| 1777977590 | 30° C | 74% | 1006 hPa | - | - | - | - |
| 1777975808 | 30° C | 74% | 1006 hPa | - | - | - | - |
| 1777973988 | 30° C | 74% | 1006 hPa | - | - | - | - |
| 1777972788 | 30° C | 74% | 1006 hPa | - | - | - | - |
| 1777972212 | 30° C | 74% | 1006 hPa | - | - | - | - |
| 1777970388 | 30.56° C | 74% | 1005 hPa | - | - | - | - |
| 1777968606 | 30.56° C | 74% | 1005 hPa | - | - | - | - |
| 1777966788 | 32.78° C | 62% | 1005 hPa | - | - | - | - |
| 1777965007 | 33.89° C | 59% | 1006 hPa | - | - | - | - |
| 1777963189 | 33.89° C | 59% | 1006 hPa | - | - | - | - |
| 1777961407 | 33.89° C | 59% | 1006 hPa | - | - | - | - |
| 1777959588 | 32.78° C | 66% | 1007 hPa | - | - | - | - |
| 1777957812 | 32.78° C | 62% | 1007 hPa | - | - | - | - |
| 1777955988 | 31.67° C | 66% | 1008 hPa | - | - | - | - |
| 1777954205 | 30.56° C | 66% | 1008 hPa | - | - | - | - |
| 1777952387 | 30.56° C | 70% | 1009 hPa | - | - | - | - |
| 1777950607 | 30° C | 70% | 1009 hPa | - | - | - | - |
| 1777948789 | 28.89° C | 74% | 1010 hPa | - | - | - | - |
| 1777947007 | 27.78° C | 78% | 1011 hPa | - | - | - | - |
| 1777945187 | 27.78° C | 78% | 1011 hPa | - | - | - | - |
| 1777943405 | 26.67° C | 83% | 1011 hPa | - | - | - | - |
| 1777941587 | 25° C | 94% | 1011 hPa | - | - | - | - |
| 1777939812 | 25° C | 94% | 1011 hPa | - | - | - | - |
| 1777937987 | 23.89° C | 10% | - | - | - | - | - |
| 1777936206 | 23.89° C | 10% | - | - | - | - | - |
* Rain since midnight (hover to see other rain measurements)
** Current wind speed in m/s (hover to see current wind gust speed)